OBJECT T, 62626

Orbit data source: Space-Track

You're viewing an Uncataloged Satellite

Recently launched and/or uncataloged satellites may have evolving metadata. Metadata may include but not limited to: Owner, Maufacturer, Bus, Motor, and Mission.

OBJECT T, 62626 is a satellite in SSO that was launched on Tue, 14 Jan 2025 UTC via an FALCON 9 launch vehicle from the Air Force Western Test Range (AFWTR). Unknown objects in Earth's orbit typically refer to objects detected orbiting the Earth but have not yet been identified or cataloged. These objects could be anything from previously untracked satellites, spent rocket stages, debris from satellite collisions, or even natural meteoroids temporarily captured by Earth's gravity.

Loading next visibility...
Identifier
62626, 2025-009T
Orbit
SSO
Last TLE update
14 hours ago
Origin
Flag of TBDMBRSC (TBD)
Manufacturer
Rashid Space Ctr
Mission
Operational Civil Imaging
Bus & Motor
MBZSAT, Unknown motor
Mass
750 kg wet, ~700 kg dry
Launch date (UTC)
2025-01-14 (4 months ago)
Launch vehicle
FALCON 9
Launch site
Air Force Western Test Range (AFWTR)
Object type
Unknown
Shape & HBR
Hex Cyl + 4 Pan, 5 m
Radar Cross Section
14.173 m², Large (>1 m²)

Expand to show TLE details & history

TLE from 14 hours ago
0 OBJECT T
1 62626U 25009T   25128.70156965  .00008239  00000-0  38657-3 0  9999
2 62626  97.4292 209.5184 0001808 289.6679  70.4361 15.19906222 17286
Epoch: 2025-05-08T16:50Z
Definitive object data (Epoch: 2025-05-08T16:50:15.617Z)
Latitude
-0.00002°
Longitude
90.18505°
Altitude
508.797 km
Speed
7.61 km/s
True Right ascension
13h 58m 04s
True Declination
0° 00' 00"
Sunlit
Object was in full shadow at TLE epoch
Visualization TLE readout
Latitude
-8.65601°
Longitude
91.89802°
Altitude
510.163 km
Speed
7.609 km/s
Apparent Right ascension
11h 52m 29s
Apparent Declination
-63° 44' 06"
Sunlit
Object is in full shadow
Visualization observer readout
Local Sidereal Time
15:10:07
Azimuth
201.064° SSW
Elevation
-20.768°
Doppler factor
1
Orbital elements
Apogee altitude
504.335 km
Perigee altitude
501.847 km
Semi-major axis
6,881.228 km
Eccentricity
0.0001808
Inclination
97.4292°
RAAN
209.5184°
Arg. of periapsis
289.6679°
True anomaly
70.45562°
Mean anomaly
70.4361°
Eccentric anomaly
70.44586°
Mean motion
3.80228 °/min
BSTAR
0.00038657
Orbital period
94.68 mins
Loading maneuver chart data...
Loading SW <> Apogee altitude chart data...
Loading historical data...
Loading historical data...
Loading historical data...
Loading historical data...
Loading historical data...
Loading historical data...
Loading historical data...

OBJECT T Visibility forecast

Observer location: undefined°, undefined°

Span
Click to sort rows by Start time (UTC) header in descending order
Start Az.
Max El. time (UTC)
Max El. Az.
Max El.
End time (UTC)
End Az.
5 mins2025-05-09 18:41:12.118Z346.976° N2025-05-09 18:43:12.118Z300.162° NW31.29°2025-05-09 18:46:12.118Z223.176° SW
5 mins2025-05-10 05:19:12.118Z159.723° S2025-05-10 05:21:12.118Z108.782° ESE43.985°2025-05-10 05:24:12.118Z352.159° N
|